When you browse on this site, cookies collect data to enhance your experience and personalize the content and advertising you see.
Visit our Privacy Policy to learn more. By continuing to use the site, you agree to this use of cookies and data.
  • In Hungary
  • List of Countries
  • For 7 days
  • Water Temperature
  • Satellite Maps
  • Weather Map
  • News
  • Weather Widgets
  • user-avatar
    Login

    Hourly Weather Flemalle-Haute

    Today, 16 January, Wednesday

    Time Temperature Precipitation Wind Pressure Humidity
    00:00 +4°C° 0 mm 4 mps 744 mmHg 89%
    01:00 +2°C° 0 mm 5 mps 744 mmHg 88%
    02:00 +2°C° 0 mm 5 mps 743 mmHg 87%
    03:00 +2°C° 0 mm 5 mps 743 mmHg 86%
    04:00 +1°C° 0 mm 5 mps 742 mmHg 86%
    05:00 +1°C° 0 mm 5 mps 742 mmHg 87%
    06:00 +1°C° 0 mm 4 mps 742 mmHg 88%
    07:00 +1°C° 0 mm 4 mps 742 mmHg 86%
    08:00 +1°C° 0 mm 5 mps 741 mmHg 85%
    09:00 +1°C° 0 mm 5 mps 741 mmHg 83%
    10:00 +2°C° 0 mm 5 mps 741 mmHg 80%
    11:00 +2°C° 0 mm 6 mps 740 mmHg 78%
    12:00 +3°C° 0 mm 6 mps 740 mmHg 79%
    13:00 +3°C° 0 mm 6 mps 739 mmHg 79%
    14:00 +3°C° 0 mm 6 mps 738 mmHg 79%
    15:00 +3°C° 0 mm 5 mps 737 mmHg 78%
    16:00 +2°C° 0 mm 6 mps 737 mmHg 80%
    17:00 +2°C° 0 mm 6 mps 737 mmHg 81%
    18:00 0°C° 0 mm 7 mps 736 mmHg 82%
    19:00 0°C° 0 mm 7 mps 736 mmHg 83%
    20:00 0°C° 0 mm 7 mps 735 mmHg 84%
    21:00 0°C° 0 mm 7 mps 735 mmHg 85%
    22:00 +2°C° 0.9 mm 7 mps 734 mmHg 85%
    23:00 +2°C° 0.9 mm 7 mps 734 mmHg 86%

    Tomorrow, 17 January, Thursday

    Time Temperature Precipitation Wind Pressure Humidity
    00:00 +3°C° 0.9 mm 7 mps 734 mmHg 87%
    01:00 +3°C° 0.5 mm 6 mps 734 mmHg 89%
    02:00 +3°C° 0.5 mm 5 mps 734 mmHg 91%
    03:00 +4°C° 0.5 mm 4 mps 734 mmHg 92%
    04:00 +3°C° 0 mm 4 mps 734 mmHg 93%
    05:00 +3°C° 0 mm 4 mps 734 mmHg 93%
    06:00 +2°C° 0 mm 3 mps 734 mmHg 94%
    07:00 +1°C° 0.3 mm 4 mps 734 mmHg 92%
    08:00 +2°C° 0.3 mm 5 mps 735 mmHg 90%
    09:00 +2°C° 0.3 mm 6 mps 735 mmHg 89%
    10:00 +2°C° 0.8 mm 6 mps 735 mmHg 88%
    11:00 +2°C° 0.8 mm 6 mps 735 mmHg 86%
    12:00 +2°C° 0.8 mm 6 mps 735 mmHg 85%
    13:00 +2°C° 0.3 mm 6 mps 736 mmHg 82%
    14:00 +2°C° 0.3 mm 5 mps 737 mmHg 78%
    15:00 +1°C° 0.3 mm 5 mps 738 mmHg 74%
    16:00 +1°C° 0.1 mm 5 mps 738 mmHg 75%
    17:00 0°C° 0.1 mm 4 mps 739 mmHg 77%
    18:00 -1°C° 0.1 mm 4 mps 740 mmHg 78%
    19:00 -1°C° 0 mm 4 mps 741 mmHg 79%
    20:00 -1°C° 0 mm 3 mps 741 mmHg 81%
    21:00 -1°C° 0 mm 3 mps 742 mmHg 82%
    22:00 -1°C° 0 mm 3 mps 743 mmHg 83%
    23:00 -2°C° 0 mm 3 mps 743 mmHg 83%

    Day after tomorrow, 18 January, Friday

    Time Temperature Precipitation Wind Pressure Humidity
    00:00 -2°C° 0 mm 3 mps 744 mmHg 84%
    01:00 -2°C° 0 mm 2 mps 744 mmHg 84%
    02:00 -2°C° 0 mm 2 mps 744 mmHg 85%
    03:00 -2°C° 0 mm 2 mps 745 mmHg 86%
    04:00 -2°C° 0 mm 2 mps 745 mmHg 86%
    05:00 0°C° 0 mm 1 mps 745 mmHg 86%
    06:00 0°C° 0 mm 1 mps 746 mmHg 87%
    07:00 0°C° 0 mm 1 mps 746 mmHg 85%
    08:00 +1°C° 0 mm 1 mps 746 mmHg 83%
    09:00 +1°C° 0 mm 1 mps 747 mmHg 81%
    10:00 +2°C° 0 mm 1 mps 747 mmHg 75%
    11:00 +3°C° 0 mm 1 mps 747 mmHg 68%
    12:00 +4°C° 0 mm 1 mps 747 mmHg 62%
    13:00 +4°C° 0 mm 1 mps 746 mmHg 62%
    14:00 +4°C° 0 mm 1 mps 746 mmHg 63%
    15:00 +3°C° 0 mm 0 mps 746 mmHg 63%
    16:00 +3°C° 0 mm 1 mps 746 mmHg 66%
    17:00 +2°C° 0 mm 1 mps 746 mmHg 68%
    18:00 +1°C° 0 mm 1 mps 746 mmHg 70%
    19:00 -1°C° 0 mm 2 mps 746 mmHg 72%
    20:00 -2°C° 0 mm 2 mps 746 mmHg 74%
    21:00 -2°C° 0 mm 2 mps 746 mmHg 76%
    22:00 -2°C° 0 mm 2 mps 745 mmHg 76%
    23:00 -2°C° 0 mm 2 mps 745 mmHg 77%

    19 January, Saturday

    Time Temperature Precipitation Wind Pressure Humidity
    00:00 -3°C° 0 mm 2 mps 745 mmHg 77%
    01:00 -4°C° 0 mm 3 mps 745 mmHg 77%
    02:00 -4°C° 0 mm 3 mps 744 mmHg 77%
    03:00 -4°C° 0 mm 3 mps 744 mmHg 77%
    04:00 -4°C° 0 mm 3 mps 743 mmHg 77%
    05:00 -4°C° 0 mm 3 mps 743 mmHg 76%
    06:00 -4°C° 0 mm 3 mps 743 mmHg 75%
    07:00 -2°C° 0 mm 3 mps 743 mmHg 73%
    08:00 -3°C° 0 mm 4 mps 742 mmHg 70%
    09:00 -2°C° 0 mm 4 mps 742 mmHg 67%
    10:00 -2°C° 0 mm 4 mps 742 mmHg 64%
    11:00 -1°C° 0 mm 4 mps 742 mmHg 60%
    12:00 0°C° 0 mm 4 mps 741 mmHg 56%
    13:00 +1°C° 0 mm 3 mps 741 mmHg 59%
    14:00 +1°C° 0 mm 3 mps 740 mmHg 61%
    15:00 +1°C° 0 mm 3 mps 740 mmHg 64%
    16:00 0°C° 0 mm 3 mps 740 mmHg 66%
    17:00 0°C° 0 mm 3 mps 740 mmHg 69%
    18:00 -1°C° 0 mm 3 mps 740 mmHg 71%
    19:00 -1°C° 0.2 mm 3 mps 740 mmHg 75%
    20:00 -1°C° 0.2 mm 3 mps 740 mmHg 78%
    21:00 -1°C° 0.2 mm 3 mps 740 mmHg 82%
    22:00 -1°C° 0.1 mm 2 mps 740 mmHg 82%
    23:00 -1°C° 0.1 mm 2 mps 740 mmHg 83%

    20 January, Sunday

    Time Temperature Precipitation Wind Pressure Humidity
    00:00 -1°C° 0.1 mm 2 mps 740 mmHg 84%
    01:00 -1°C° 0 mm 2 mps 740 mmHg 85%
    02:00 -2°C° 0 mm 2 mps 740 mmHg 87%
    03:00 -2°C° 0 mm 2 mps 740 mmHg 88%
    04:00 0°C° 0 mm 1 mps 740 mmHg 89%
    05:00 0°C° 0 mm 1 mps 740 mmHg 89%
    06:00 0°C° 0 mm 1 mps 740 mmHg 90%
    07:00 0°C° 0 mm 1 mps 741 mmHg 88%
    08:00 +1°C° 0 mm 1 mps 741 mmHg 86%
    09:00 +1°C° 0 mm 1 mps 742 mmHg 85%
    10:00 +2°C° 0 mm 1 mps 742 mmHg 82%
    11:00 +3°C° 0 mm 1 mps 742 mmHg 78%
    12:00 +3°C° 0 mm 0 mps 742 mmHg 75%
    13:00 +4°C° 0 mm 1 mps 743 mmHg 78%
    14:00 +4°C° 0 mm 1 mps 743 mmHg 81%
    15:00 +2°C° 0 mm 2 mps 743 mmHg 84%
    16:00 +1°C° 0 mm 2 mps 744 mmHg 86%
    17:00 -1°C° 0 mm 2 mps 744 mmHg 88%
    18:00 0°C° 0 mm 1 mps 745 mmHg 91%
    19:00 0°C° 0 mm 1 mps 745 mmHg 90%
    20:00 0°C° 0 mm 1 mps 746 mmHg 90%
    21:00 0°C° 0 mm 1 mps 746 mmHg 90%
    22:00 -1°C° 0 mm 1 mps 747 mmHg 90%
    23:00 -1°C° 0 mm 1 mps 747 mmHg 90%

    21 January, Monday

    Time Temperature Precipitation Wind Pressure Humidity
    00:00 -1°C° 0 mm 1 mps 747 mmHg 91%
    01:00 -1°C° 0 mm 1 mps 747 mmHg 91%
    02:00 -1°C° 0 mm 1 mps 747 mmHg 91%
    03:00 -1°C° 0 mm 1 mps 748 mmHg 91%
    04:00 -2°C° 0 mm 1 mps 748 mmHg 91%
    05:00 -2°C° 0 mm 1 mps 748 mmHg 91%
    06:00 -2°C° 0 mm 1 mps 748 mmHg 91%
    07:00 -1°C° 0 mm 1 mps 749 mmHg 89%
    08:00 -1°C° 0 mm 1 mps 749 mmHg 86%
    09:00 0°C° 0 mm 1 mps 749 mmHg 84%
    10:00 +1°C° 0 mm 1 mps 749 mmHg 79%
    11:00 +2°C° 0 mm 1 mps 749 mmHg 74%
    12:00 +3°C° 0 mm 1 mps 749 mmHg 69%
    13:00 +3°C° 0 mm 1 mps 749 mmHg 71%
    14:00 +2°C° 0 mm 1 mps 749 mmHg 73%
    15:00 +2°C° 0 mm 1 mps 748 mmHg 75%
    16:00 +1°C° 0 mm 1 mps 748 mmHg 78%
    17:00 0°C° 0 mm 1 mps 748 mmHg 82%
    18:00 -1°C° 0 mm 1 mps 748 mmHg 85%
    19:00 -1°C° 0 mm 1 mps 748 mmHg 85%
    20:00 -1°C° 0 mm 1 mps 747 mmHg 85%
    21:00 -3°C° 0 mm 2 mps 747 mmHg 85%
    22:00 -3°C° 0 mm 2 mps 747 mmHg 84%
    23:00 -3°C° 0 mm 2 mps 746 mmHg 84%
    Show more